Flag for Germany Weather past 2 weeks in Lage, North Rhine-Westphalia, Germany

Now
38 °F

Overcast.


Feels Like: 33 °F
Forecast: 35 / 42 °F
Wind: 6 mph from Northwest

Location: Bad Lippspringe

Current Time: Apr 1, 2015 at 8:04:21 PM

Latest Report: Apr 1, 2015 at 7:00 PM


Visibility: 22 mi

Pressure: 30.01 "Hg

Humidity: 84%

Dew point: 33 °F

Location of LageLocation

Historic Weather in Lage — Graph

°F

Lage temperature yesterday

Maximum temperature yesterday: 50 °F (at 8:00 AM)
Minimum temperature yesterday: 36 °F (at 3:00 AM)
Average temperature yesterday: 43 °F

Past Weeks' High & Low Weather Summary

 TemperatureHumidityPressure
High63 °F (Mar 25, 3:00 PM)100% (Mar 19, 8:00 AM)30.38 "Hg (Mar 19, 8:00 AM)
Low27 °F (Mar 23, 5:00 AM)43% (Mar 25, 3:00 PM)29.15 "Hg (Mar 31, 7:00 AM)
Average43 °F81%29.93 "Hg
* Reported Mar 17 6:00 PM — Apr 1 7:00 PM, Lage, Weather by CustomWeather, © 2015

Note: Actual official high and low records may vary slightly from our data, if they occured in-between our weather recording intervals... More about our weather records

Advertising

Lage weather history for previous 24 hours

 ConditionsComfort  
Time TempWeatherWind HumidityBarometerVisibility
7:00 PM
Wed, Apr 1
38 °FOvercast.6 mph84%30.01 "Hg22 mi
6:00 PM39 °FPartly sunny.8 mph81%29.99 "Hg25 mi
5:00 PM39 °FOvercast.8 mph85%29.97 "Hg31 mi
4:00 PM37 °FLight rain. Low clouds.7 mph90%29.98 "Hg13 mi
3:00 PM36 °FFreezing rain. Overcast.6 mph89%29.99 "Hg5 mi
2:00 PM41 °FOvercast.8 mph73%29.97 "Hg19 mi
1:00 PM43 °FOvercast.12 mph70%29.95 "Hg14 mi
12:00 PM41 °FOvercast.8 mph76%29.95 "Hg17 mi
11:00 AM38 °FOvercast.7 mph88%29.95 "Hg14 mi
10:00 AM36 °FLow clouds.7 mph92%29.92 "Hg19 mi
9:00 AM35 °FLight freezing rain. Low clouds.8 mph95%29.90 "Hg3 mi
8:00 AM35 °FOvercast.7 mph92%29.86 "Hg14 mi
7:00 AM35 °FOvercast.8 mph90%29.84 "HgN/A
6:00 AM35 °FDrizzle. Low clouds.9 mph92%29.80 "Hg22 mi
5:00 AM36 °FOvercast.5 mph89%29.78 "Hg43 mi
4:00 AM38 °FLight rain. Overcast.8 mph81%29.76 "Hg19 mi
3:00 AM38 °FOvercast.7 mph79%29.75 "Hg43 mi
2:00 AM35 °FFreezing rain. Low clouds.8 mph87%29.75 "Hg25 mi
1:00 AM37 °FOvercast.5 mph88%29.71 "Hg43 mi
12:00 AM38 °FRain. Overcast.9 mph86%29.71 "Hg3 mi
11:00 PM
Tue, Mar 31
42 °FOvercast.9 mph64%29.68 "Hg43 mi
10:00 PM42 °FOvercast.8 mph72%29.68 "Hg43 mi
9:00 PM41 °FOvercast.8 mph73%29.67 "Hg43 mi
8:00 PM40 °FLight rain. Overcast.22 mphN/A29.68 "Hg1 mi
Weather by CustomWeather, © 2015

See weather overviewHow to use our weather pages